User: anonymous   Login
Location: Leeds
(37.2390°N, 113.3580°W)
Time: 06:02:56
(UTC-06:00)
Language:

SL-08 RB Rocket - Orbit

View from above orbital plane
View from above orbital plane
View from above satellite
View from above satellite

Ground track
Ground track

The orbit data is extracted from the following two-line orbital elements,

1 26387U 00033D   17085.77250921 +.00000084 +00000-0 +23014-4 0  9992
2 26387 097.9796 152.1336 0025378 237.3458 232.4767 14.68250163153470
Epoch (UTC): 26 March 2017 18:32:24
Eccentricity: 0.0025378
inclination: 97.9796°
perigee height: 649 km
apogee height: 684 km
right ascension of ascending node: 152.1336°
argument of perigee: 237.3458°
revolutions per day: 14.68250163
mean anomaly at epoch: 232.4767°
orbit number at epoch: 15347

The dashed part of the orbit path shows where the satellite is in the earth's shadow,  

DLR